Timeline UpdatesTrip UpdatesNews PostsPvt Posts♥♥Travel TipsAdmin PostsConv PostsFollowed PostsChat RequestsBlog PostsPNR Posts

Disclaimer
Search
 
 
Thu Dec 18, 2014 04:46:16 ISTHomeTrainsΣChainsAtlasPNRForumGalleryNewsFAQTripsMembersLoginFeedback
No Recent News for this Train
Other Trains in the News **new
Latest...
Temporary Stop at Vindhyachal (BDL) for 2 minutes from 25/9/14-6/10/14 #1223333.
Wed Sep 24, 2014 (11:32PM)
⇐ Return Journey: Train# 14055

14056/Brahmaputra Mail

Time-Table HAS CHANGED.
Sep 24 2014 (11:32PM)
Change Departure Station:
Change Arrival Station:
Post a Train Travel TipPost a Train Travel Tip **new
Post a Comment/Question/Picture/VideoPost a Comment/Question/Picture/Video
Inaugural Run
Tue Oct 01, 1974
Pantry/Catering
✓ Pantry Car Avbl
✓ Catering Avbl
RSA - Rake Sharing
NO RSA
Rake/Coach Composition
LOCO-SLR-GS-GS-GS-S1-S2-S3-S4-S5-S6-S7-S8-S9-S10-S11-PC-A1-B1-B2-B3-GS-GS-GS-SLR
Loco
GZB WAP-4 (DLI-KIUL); SGUJ WDP-4/4B/4D (KIUL-DBRG)
News    PNR    Forum    Time-Table    Availability    Fare Chart    Map    Arr/Dep History    Trips    Gallery    ΣChains    X/O    Timeline    
Travel Time: 52h 20m    59 halts    Distance: 2598 km    Avg Speed: 49 km/hr
Type: Mail/Express
Zone: NR/Northern
Departs @ 23:40 (Avg 2m late)
Platform# 16
SMTWTFS
Old Delhi Junction/DLI 
Arrives @ 04:00 +3 nights (Avg 5h 50m late)
Platform# 1
SMTWTFS
Dibrugarh/DBRG 

59 halts. 438 intermediate Stations between Old Delhi Junction and Dibrugarh

Show ALL intermediate Stations  Show Old Time-Table

#TrkCodeStation NameX/OArrivesAvgDepartsAvgHaltPFDay#KmSpeedElevZoneAddress
1/==/DLIOld Delhi Junction (16)»  -23:40+21610.059219mNRNear Chandni Chowk Metro Station, Delhi NCT
2/==/KRJKhurja Junction (4)  01:04+3201:06+332m3282.782199mNCRBulandshahr, Uttar Pradesh
3/==/ALJNAligarh Junction (4)XO  01:38+3601:43+365m22126.273192mNCRAligarh, Uttar Pradesh
4/==/TDLTundla Junction (5)XO  02:47+3802:52+395m--2204.487167mNCRDistt.Firozabad, Uttar Pradesh
5/==/SKBShikohabad Junction (4)X  03:19 03:17+5103:21 03:19+512m22240.875166mNCRDistrict Firozabad, Uttar Pradesh
6/==/CNBKanpur Central (10)  05:45 05:55+1:2505:55 06:00+1:3110 5m--2435.578128mNCRKANPUR-208 001, Uttar Pradesh
7/==/ALDAllahabad Junction (10)X  08:25 08:30+2:4908:35 08:40+3:0010m42629.974100mNCRAllahabad 211003, Uttar Pradesh
8/==/MZPMirzapur (3)X  09:48 09:53+3:3609:50 09:55+3:392m--2719.44088mNCRMirzapur, Uttar Pradesh
9/==/MGSMughal Sarai Junction (8)O  11:20 11:30+3:5711:30 11:45+3:5410 15m12782.67583mECRDistt: Chandauli Pin 232101, Uttar Pradesh
10/==/DLNDildarnagar Junction (2)  12:16 12:31+4:0212:18 12:33+4:022m--2840.39172mECRDildarnagar, Uttar Pradesh
11/==/BXRBuxar (3)X  12:47 12:57+4:0212:49 12:59+4:032m--2876.59667mECRBuxar, Bihar
12/==/ARAAra Junction (3)  13:38 13:42+4:2313:40 13:44+4:232m--2945.04863mECRDistt: Bhojpur Ph 06182-233411, Bihar
13/==/PNBEPatna Junction (10)  14:45+4:4014:55+4:4310m12993.94257mECRPatna 800001, Bihar
14/==/PNCPatna Saheb (3)  15:09+4:5115:11+4:522m221003.87859mECRPatna 800008, Bihar
15/==/MKAMokama Junction (4)X  16:12+5:4216:14+5:422m--21083.23748mECRPatna, Bihar
16/==/KIULKiul Junction (5)17:10+5:4017:30+5:5320m421117.46653mECRDist. Lakhisarai, Bihar
17|==|AHAAbhaipur (3)  17:51+5:5917:53+5:592m--21140.46052mERAbhaipur, Bihar
18|-=|JMPJamalpur Junction (4)X  18:15+6:0318:30+6:0115m--21162.26559mERDist: Munger 06344-243101, Bihar
19|==|SGGSultanGanj (3)  18:57+6:0818:59+6:082m--21191.33342mERSultanganj, Bihar
20!==|BGPBhagalpur Junction (6)  19:45+5:5219:57+5:4912m121216.26949mERBhagalpur, Bihar
21!==!CLGKahalgaon (2)  20:23+6:0620:25+6:072m121246.33744mERBhagalpur, Bihar
22!==!SBGSahibganj Junction (3)X  21:37+5:5121:45+5:588m121290.23738mERSahibganj, Jharkhand
23|==|BHWBarharwa Junction (3)  22:53 23:13+5:4922:55 23:15+5:512m221344.64036mERBarharwa, Jharkhand
24%==%NFKNew Farakka Junction (3)X  23:22 23:42+5:5523:24 23:44+5:542m221362.63532mERDist - Murshidabad, West Bengal
25%==%MLDTMalda Town (5)X  00:20 00:45+5:3900:40 01:00+5:4720 15m--31397.78030mERDist - Malda, West Bengal
26%==%BOEBarsoi Junction (3)  01:50 02:08+6:0901:52 02:10+6:102m--31488.36937mNFRdist- katihar, Bihar
27%==%KNEKishanGanj (3)  02:36 03:00+6:1702:41 03:05+6:145m--31545.94852mNFRKishanganj, Bihar
28%==|NJPNew Jalpaiguri Junction (8)  04:25 04:55+6:0004:45 05:15+5:5820m131633.247114mNFRCity-Siliguri . Dist-Jalpaiguri, West Bengal
29|--|JPEJalpaiguri Road (2)  05:24 05:58+6:0505:26 06:00+6:072m131666.75689mNFRDist - Jalpaiguri, West Bengal
30|--|DQGDhupguri (2)X  05:53 06:34+6:1405:58 06:39+6:145m--31698.57175mNFRDist - Jalpaiguri, West Bengal
31|--|FLKFalakata (3)X  06:18 06:58+6:2706:20 07:00+6:302m--31720.93867mNFRDist - Alipurduar, West Bengal
32!==!NCBNew Cooch Behar Junction (5)  07:10 08:00+6:1907:15 08:05+6:215m--31758.75647mNFRDist : Cooch Behar-736101, West Bengal
33!==!NOQNew Alipurduar (2)  07:35 08:25+6:2607:40 08:30+6:285m--31777.48148mNFRDist - Alipurduar - 736121, West Bengal
34|==|GOGHGossaigaon Hat (3)X  08:15 09:04+6:3508:17 09:06+6:362m--31823.07848mNFRKokrajhar, Assam
35|==|FKMFakiragram Junction (4)X  08:36 09:24+6:3308:38 09:26+6:342m331846.35944mNFR03661-283454, Assam
36|==|KOJKokrajhar (3)X  08:48 09:36+6:3508:50 09:38+6:362m--31856.23246mNFR03661-270618, Assam
37|=-|NBQNew Bongaigaon Junction (4)  10:05 10:30+6:1910:15 10:40+6:1710m--31884.12458mNFR783381., Assam
38|--|BNGNBongaigaon (3)  10:21 10:46+6:2010:23 10:48+6:212m--31886.56360mNFRBongaigaon, Assam
39|--|BJFBijni  10:37 11:02+6:2610:39 11:04+6:282m--31901.27754mNFRDist: Chirang, Assam
40|--|BPRDBarpeta Road (2)  11:07 11:25+6:2711:12 11:30+6:295m--31928.15849mNFRHowli, Assam
41|--|NLVNalbari (3)  12:02 12:20+6:2912:04 12:22+6:312m--31976.56254mNFRNalbari, Assam
42|--|RNYRangiya Junction (5)X  12:25 12:38+6:3412:35 12:48+6:3310m--31993.02558mNFRRangia, Assam
43|-=|KYQKamakhya Junction (4)  13:57 14:25+6:1214:02 14:30+6:145m--32033.72855mNFRDist - KAMRUP, Assam
44|==|GHYGuwahati (7)X  14:25 14:45+6:2214:40 15:00+6:2815m--32040.65660mNFRGuwahati, Assam
45|-=|DGUDigaru  15:20 15:36+6:3015:22 15:38+6:302m--32074.26158mNFRDigaru, Assam
46|--|JIDJagi Road (2)X  15:47 16:01+6:2115:49 16:03+6:232m--32097.76862mNFRJagiroad, Assam
47|--|CPKChaparmukh Junction (3)X  16:20 16:33+6:3316:25 16:38+6:345m--32131.76165mNFRChaparmukh. Dist. Nagaon. Changing point for HBN/SHTT, Assam
48|--|KWMKampur  16:45 16:55+6:3316:47 16:57+6:342m--32148.94768mNFRKampur, Assam
49|--|JMKJamunamukhX  16:58 17:11+6:3417:00 17:13+6:342m--32159.75870mNFRNational Highway 36, Assam
50!=-|HJIHojai (2)  17:28 17:30+6:3517:30 17:32+6:362m--32176.24778mNFRHojai Rd. Ph:- 03674-252136., Assam
51!==!LKALanka (2)X  17:44 17:50+6:3317:46 17:52+6:332m--32190.22689mNFRLanka, Assam
52|-=!LMGLumding Junction (5)  18:55 19:05+6:1419:10 19:15+6:1415 10m332221.462142mNFRLumding, Assam
53|--|DPUDiphu (2)  20:06 19:46+6:2720:08 19:48+6:292m--32253.560180mNFRDiphu, Assam
54|--|DMVDimapur (3)X  20:45 20:25+6:2520:55 20:35+6:3210m--32290.850153mNFRDimapur, Nagaland
55|--|BXJBokajan (2)  21:11 20:52+6:3021:13 20:57+6:332 5m--32305.036138mNFRBokajan, Assam
56|--|FKGFurkating Junction (2)  22:30+6:0722:32+6:102m--32361.053102mNFRK B Rd, Assam
57|--|MXNMariani Junction (3)X  23:15+6:3323:25+6:2910m132399.065117mNFRDist. Jorhat Pin-785634, Assam
58|--|SLGRSimaluguri Junction (3)  00:10 00:15+6:3900:15 00:20+6:385m142453.26899mNFRSimaluguri, Assam
59|--|BOJBhojo  00:45 00:50+6:4100:50 00:55+6:395m--42487.141107mNFRBhojo Railway Station, Assam
60|--|NTSKNew Tinsukia Junction (3)  02:35+6:2602:45+6:3110m--42555.734124mNFRDist: Tinsukia, Assam
61|--|DBRGDibrugarh (4)•  04:00+5:50-142597.7-108mNFRDibrugarh 786003, Assam
Scroll to Top
Scroll to Bottom


Go to Mobile site